Time,TemperatureF,DewpointF,PressureIn,WindDirection,WindDirectionDegrees,WindSpeedMPH,WindSpeedGustMPH,Humidity,HourlyPrecipIn,Conditions,Clouds,dailyrainin,SoftwareType,DateUTC
2013-04-01 00:04:00,59.0,50.4,17.73,North,-999,-999.0,-999.0,43,0.00,,,0.04,meteohub,2013-04-01 07:04:00,
2013-04-01 00:09:00,59.0,50.4,17.73,North,-999,-999.0,-999.0,43,0.00,,,0.04,meteohub,2013-04-01 07:09:00,
2013-04-01 00:14:00,59.0,50.4,17.73,North,-999,-999.0,-999.0,43,0.00,,,0.04,meteohub,2013-04-01 07:14:00,
2013-04-01 00:20:00,59.0,50.4,17.73,North,-999,-999.0,-999.0,43,0.00,,,0.04,meteohub,2013-04-01 07:20:00,
2013-04-01 00:25:00,59.0,50.7,17.73,North,-999,-999.0,-999.0,43,0.00,,,0.04,meteohub,2013-04-01 07:25:00,
2013-04-01 00:30:00,59.0,50.7,17.73,North,-999,-999.0,-999.0,43,0.00,,,0.04,meteohub,2013-04-01 07:30:00,
2013-04-01 00:36:00,59.0,50.7,17.73,North,-999,-999.0,-999.0,43,0.00,,,0.04,meteohub,2013-04-01 07:36:00,
2013-04-01 00:41:00,58.8,50.5,17.73,North,-999,-999.0,-999.0,43,0.00,,,0.04,meteohub,2013-04-01 07:41:00,
2013-04-01 00:47:00,58.8,50.5,17.73,North,-999,-999.0,-999.0,43,0.00,,,0.04,meteohub,2013-04-01 07:47:00,
2013-04-01 00:52:00,58.8,50.9,17.73,North,-999,-999.0,-999.0,43,0.00,,,0.04,meteohub,2013-04-01 07:52:00,
2013-04-01 00:57:00,58.8,50.9,17.73,North,-999,-999.0,-999.0,43,0.00,,,0.04,meteohub,2013-04-01 07:57:00,
2013-04-01 01:03:00,58.8,50.9,17.73,North,-999,-999.0,-999.0,43,0.00,,,0.04,meteohub,2013-04-01 08:03:00,
2013-04-01 01:08:00,58.6,50.7,17.73,North,-999,-999.0,-999.0,43,0.00,,,0.04,meteohub,2013-04-01 08:08:00,
2013-04-01 01:13:00,58.6,51.1,17.73,North,-999,-999.0,-999.0,43,0.00,,,0.04,meteohub,2013-04-01 08:13:00,
2013-04-01 01:19:00,58.6,51.1,17.73,North,-999,-999.0,-999.0,43,0.00,,,0.04,meteohub,2013-04-01 08:19:00,
2013-04-01 01:24:00,58.6,51.1,17.73,North,-999,-999.0,-999.0,43,0.00,,,0.04,meteohub,2013-04-01 08:24:00,
2013-04-01 01:29:00,58.6,51.1,17.73,North,-999,-999.0,-999.0,43,0.00,,,0.04,meteohub,2013-04-01 08:29:00,
2013-04-01 01:34:00,58.6,51.1,17.73,North,-999,-999.0,-999.0,43,0.00,,,0.04,meteohub,2013-04-01 08:34:00,
2013-04-01 01:39:00,58.6,51.1,17.73,North,-999,-999.0,-999.0,43,0.00,,,0.04,meteohub,2013-04-01 08:39:00,
2013-04-01 01:44:00,58.6,51.4,17.73,North,-999,-999.0,-999.0,43,0.00,,,0.04,meteohub,2013-04-01 08:44:00,
2013-04-01 01:50:00,58.5,51.3,17.73,North,-999,-999.0,-999.0,43,0.00,,,0.04,meteohub,2013-04-01 08:50:00,
2013-04-01 01:55:00,58.6,51.4,17.73,North,-999,-999.0,-999.0,43,0.00,,,0.04,meteohub,2013-04-01 08:55:00,
2013-04-01 02:00:00,58.5,51.3,17.73,North,-999,-999.0,-999.0,43,0.00,,,0.04,meteohub,2013-04-01 09:00:00,
2013-04-01 02:06:00,58.5,51.3,17.73,North,-999,-999.0,-999.0,43,0.00,,,0.04,meteohub,2013-04-01 09:06:00,
2013-04-01 02:11:00,58.5,51.6,17.73,North,-999,-999.0,-999.0,44,0.00,,,0.04,meteohub,2013-04-01 09:11:00,
2013-04-01 02:16:00,58.5,51.6,17.73,North,-999,-999.0,-999.0,44,0.00,,,0.04,meteohub,2013-04-01 09:16:00,
2013-04-01 02:22:00,58.5,51.6,17.73,North,-999,-999.0,-999.0,44,0.00,,,0.04,meteohub,2013-04-01 09:22:00,
2013-04-01 02:27:00,58.5,51.6,17.73,North,-999,-999.0,-999.0,44,0.00,,,0.04,meteohub,2013-04-01 09:27:00,
2013-04-01 02:32:00,58.5,51.6,17.73,North,-999,-999.0,-999.0,44,0.00,,,0.04,meteohub,2013-04-01 09:32:00,
2013-04-01 02:37:00,58.5,51.6,17.73,North,-999,-999.0,-999.0,44,0.00,,,0.04,meteohub,2013-04-01 09:37:00,
2013-04-01 02:42:00,58.5,52.0,17.73,North,-999,-999.0,-999.0,44,0.00,,,0.04,meteohub,2013-04-01 09:42:00,
2013-04-01 02:48:00,58.5,52.0,17.73,North,-999,-999.0,-999.0,44,0.00,,,0.04,meteohub,2013-04-01 09:48:00,
2013-04-01 02:53:00,58.5,52.0,17.73,North,-999,-999.0,-999.0,44,0.00,,,0.04,meteohub,2013-04-01 09:53:00,
2013-04-01 02:58:00,58.5,52.0,17.73,North,-999,-999.0,-999.0,44,0.00,,,0.04,meteohub,2013-04-01 09:58:00,
2013-04-01 03:03:00,58.3,51.8,17.73,North,-999,-999.0,-999.0,44,0.00,,,0.04,meteohub,2013-04-01 10:03:00,
2013-04-01 03:09:00,58.3,51.8,17.73,North,-999,-999.0,-999.0,44,0.00,,,0.04,meteohub,2013-04-01 10:09:00,
2013-04-01 03:14:00,58.3,51.8,17.73,North,-999,-999.0,-999.0,44,0.00,,,0.04,meteohub,2013-04-01 10:14:00,
2013-04-01 03:19:00,58.3,52.2,17.73,North,-999,-999.0,-999.0,44,0.00,,,0.04,meteohub,2013-04-01 10:19:00,
2013-04-01 03:25:00,58.3,52.2,17.73,North,-999,-999.0,-999.0,44,0.00,,,0.04,meteohub,2013-04-01 10:25:00,
2013-04-01 03:30:00,58.5,52.3,17.73,North,-999,-999.0,-999.0,44,0.00,,,0.04,meteohub,2013-04-01 10:30:00,
2013-04-01 03:35:00,58.3,52.2,17.73,North,-999,-999.0,-999.0,44,0.00,,,0.04,meteohub,2013-04-01 10:35:00,
2013-04-01 03:41:00,58.5,52.3,17.73,North,-999,-999.0,-999.0,44,0.00,,,0.04,meteohub,2013-04-01 10:41:00,
2013-04-01 03:46:00,58.5,52.3,17.73,North,-999,-999.0,-999.0,44,0.00,,,0.04,meteohub,2013-04-01 10:46:00,
2013-04-01 03:51:00,58.5,52.3,17.73,North,-999,-999.0,-999.0,44,0.00,,,0.04,meteohub,2013-04-01 10:51:00,
2013-04-01 03:57:00,58.5,52.3,17.73,North,-999,-999.0,-999.0,44,0.00,,,0.04,meteohub,2013-04-01 10:57:00,
2013-04-01 04:02:00,58.5,52.7,17.73,North,-999,-999.0,-999.0,44,0.00,,,0.04,meteohub,2013-04-01 11:02:00,
2013-04-01 04:07:00,58.3,52.5,17.73,North,-999,-999.0,-999.0,45,0.00,,,0.04,meteohub,2013-04-01 11:07:00,
2013-04-01 04:12:00,58.5,52.7,17.73,North,-999,-999.0,-999.0,45,0.00,,,0.04,meteohub,2013-04-01 11:12:00,
2013-04-01 04:17:00,58.5,52.7,17.73,North,-999,-999.0,-999.0,45,0.00,,,0.04,meteohub,2013-04-01 11:17:00,
2013-04-01 04:23:00,58.5,52.7,17.73,North,-999,-999.0,-999.0,45,0.04,,,0.08,meteohub,2013-04-01 11:23:00,
2013-04-01 04:28:00,58.5,52.7,17.73,North,-999,-999.0,-999.0,45,0.04,,,0.08,meteohub,2013-04-01 11:28:00,
2013-04-01 04:33:00,58.5,53.1,17.73,North,-999,-999.0,-999.0,45,0.04,,,0.08,meteohub,2013-04-01 11:33:00,
2013-04-01 04:38:00,58.5,53.1,17.73,North,-999,-999.0,-999.0,45,0.04,,,0.08,meteohub,2013-04-01 11:38:00,
2013-04-01 04:43:00,58.5,53.1,17.73,North,-999,-999.0,-999.0,45,0.04,,,0.08,meteohub,2013-04-01 11:43:00,
2013-04-01 04:49:00,58.5,53.1,17.73,North,-999,-999.0,-999.0,45,0.04,,,0.08,meteohub,2013-04-01 11:49:00,
2013-04-01 04:54:00,58.5,53.1,17.73,North,-999,-999.0,-999.0,45,0.04,,,0.08,meteohub,2013-04-01 11:54:00,
2013-04-01 04:59:00,58.5,53.1,17.73,North,-999,-999.0,-999.0,45,0.04,,,0.08,meteohub,2013-04-01 11:59:00,
2013-04-01 05:04:00,58.5,53.1,17.73,North,-999,-999.0,-999.0,45,0.04,,,0.08,meteohub,2013-04-01 12:04:00,
2013-04-01 05:10:00,58.3,52.9,17.73,North,-999,-999.0,-999.0,45,0.04,,,0.08,meteohub,2013-04-01 12:10:00,
2013-04-01 05:15:00,58.3,52.9,17.73,North,-999,-999.0,-999.0,45,0.04,,,0.08,meteohub,2013-04-01 12:15:00,
2013-04-01 05:20:00,58.3,52.9,17.73,North,-999,-999.0,-999.0,45,0.00,,,0.08,meteohub,2013-04-01 12:20:00,
2013-04-01 05:25:00,58.1,52.7,17.73,North,-999,-999.0,-999.0,45,0.00,,,0.08,meteohub,2013-04-01 12:25:00,
2013-04-01 05:30:00,58.1,52.7,17.73,North,-999,-999.0,-999.0,46,0.00,,,0.08,meteohub,2013-04-01 12:30:00,
2013-04-01 05:36:00,58.1,52.7,17.73,North,-999,-999.0,-999.0,46,0.00,,,0.08,meteohub,2013-04-01 12:36:00,
2013-04-01 05:41:00,58.3,52.9,17.73,North,-999,-999.0,-999.0,46,0.00,,,0.08,meteohub,2013-04-01 12:41:00,
2013-04-01 05:46:00,58.3,52.9,17.73,North,-999,-999.0,-999.0,46,0.00,,,0.08,meteohub,2013-04-01 12:46:00,
2013-04-01 05:51:00,58.3,52.9,17.73,North,-999,-999.0,-999.0,46,0.00,,,0.08,meteohub,2013-04-01 12:51:00,
2013-04-01 05:57:00,58.3,53.1,17.73,North,-999,-999.0,-999.0,46,0.00,,,0.08,meteohub,2013-04-01 12:57:00,
2013-04-01 06:02:00,58.3,53.1,17.73,North,-999,-999.0,-999.0,46,0.00,,,0.08,meteohub,2013-04-01 13:02:00,
2013-04-01 06:07:00,58.3,53.1,17.73,North,-999,-999.0,-999.0,46,0.00,,,0.08,meteohub,2013-04-01 13:07:00,
2013-04-01 06:12:00,58.3,53.1,17.73,North,-999,-999.0,-999.0,46,0.00,,,0.08,meteohub,2013-04-01 13:12:00,
2013-04-01 06:17:00,58.1,52.9,17.73,North,-999,-999.0,-999.0,46,0.00,,,0.08,meteohub,2013-04-01 13:17:00,
2013-04-01 06:22:00,58.1,52.9,17.73,North,-999,-999.0,-999.0,46,0.00,,,0.08,meteohub,2013-04-01 13:22:00,
2013-04-01 06:27:00,58.1,52.9,17.73,North,-999,-999.0,-999.0,46,0.00,,,0.08,meteohub,2013-04-01 13:27:00,
2013-04-01 06:32:00,57.9,53.1,17.73,North,-999,-999.0,-999.0,46,0.04,,,0.12,meteohub,2013-04-01 13:32:00,
2013-04-01 06:37:00,57.9,53.1,17.73,North,-999,-999.0,-999.0,46,0.04,,,0.12,meteohub,2013-04-01 13:37:00,
2013-04-01 06:42:00,57.9,53.1,17.73,North,-999,-999.0,-999.0,46,0.04,,,0.12,meteohub,2013-04-01 13:42:00,
2013-04-01 06:47:00,57.9,53.1,17.73,North,-999,-999.0,-999.0,47,0.04,,,0.12,meteohub,2013-04-01 13:47:00,
2013-04-01 06:52:00,57.9,53.1,17.73,North,-999,-999.0,-999.0,47,0.04,,,0.12,meteohub,2013-04-01 13:52:00,
2013-04-01 06:57:00,57.9,53.1,17.73,North,-999,-999.0,-999.0,47,0.04,,,0.12,meteohub,2013-04-01 13:57:00,
2013-04-01 07:02:00,57.9,53.1,17.73,North,-999,-999.0,-999.0,47,0.04,,,0.12,meteohub,2013-04-01 14:02:00,
2013-04-01 07:07:00,57.9,53.1,17.73,North,-999,-999.0,-999.0,47,0.04,,,0.12,meteohub,2013-04-01 14:07:00,
2013-04-01 07:13:00,57.9,53.1,17.73,North,-999,-999.0,-999.0,47,0.04,,,0.12,meteohub,2013-04-01 14:13:00,
2013-04-01 07:18:00,57.7,52.9,17.73,North,-999,-999.0,-999.0,47,0.04,,,0.12,meteohub,2013-04-01 14:18:00,
2013-04-01 07:23:00,57.7,52.9,17.73,North,-999,-999.0,-999.0,47,0.04,,,0.12,meteohub,2013-04-01 14:23:00,
2013-04-01 07:28:00,57.7,52.9,17.73,North,-999,-999.0,-999.0,47,0.04,,,0.12,meteohub,2013-04-01 14:28:00,
2013-04-01 07:33:00,57.6,52.7,17.73,North,-999,-999.0,-999.0,47,0.00,,,0.12,meteohub,2013-04-01 14:33:00,
2013-04-01 07:38:00,57.6,52.7,17.73,North,-999,-999.0,-999.0,47,0.00,,,0.12,meteohub,2013-04-01 14:38:00,
2013-04-01 07:44:00,57.6,52.7,17.73,North,-999,-999.0,-999.0,47,0.00,,,0.12,meteohub,2013-04-01 14:44:00,
2013-04-01 07:49:00,57.6,52.7,17.73,North,-999,-999.0,-999.0,47,0.00,,,0.12,meteohub,2013-04-01 14:49:00,
2013-04-01 07:54:00,57.6,52.7,17.73,North,-999,-999.0,-999.0,47,0.00,,,0.12,meteohub,2013-04-01 14:54:00,
2013-04-01 07:59:00,57.6,52.7,17.73,North,-999,-999.0,-999.0,47,0.00,,,0.12,meteohub,2013-04-01 14:59:00,
2013-04-01 08:05:00,57.6,52.7,17.73,North,-999,-999.0,-999.0,47,0.00,,,0.12,meteohub,2013-04-01 15:05:00,
2013-04-01 08:10:00,57.7,52.9,17.73,North,-999,-999.0,-999.0,47,0.00,,,0.12,meteohub,2013-04-01 15:10:00,
2013-04-01 08:15:00,57.9,53.1,17.73,North,-999,-999.0,-999.0,47,0.00,,,0.12,meteohub,2013-04-01 15:15:00,
2013-04-01 08:20:00,57.9,53.1,17.73,North,-999,-999.0,-999.0,47,0.00,,,0.12,meteohub,2013-04-01 15:20:00,
2013-04-01 08:25:00,58.1,53.2,17.73,North,-999,-999.0,-999.0,47,0.00,,,0.12,meteohub,2013-04-01 15:25:00,
2013-04-01 08:31:00,58.3,53.4,17.73,North,-999,-999.0,-999.0,47,0.00,,,0.12,meteohub,2013-04-01 15:31:00,
2013-04-01 08:36:00,58.5,54.0,17.73,North,-999,-999.0,-999.0,48,0.00,,,0.12,meteohub,2013-04-01 15:36:00,
2013-04-01 08:42:00,58.6,54.1,17.73,North,-999,-999.0,-999.0,48,0.00,,,0.12,meteohub,2013-04-01 15:42:00,
2013-04-01 08:47:00,58.8,54.3,17.73,North,-999,-999.0,-999.0,48,0.00,,,0.12,meteohub,2013-04-01 15:47:00,
2013-04-01 08:52:00,59.0,54.1,17.73,North,-999,-999.0,-999.0,48,0.00,,,0.12,meteohub,2013-04-01 15:52:00,
2013-04-01 08:57:00,59.2,54.3,17.73,North,-999,-999.0,-999.0,48,0.00,,,0.12,meteohub,2013-04-01 15:57:00,
2013-04-01 09:02:00,59.4,54.5,17.73,North,-999,-999.0,-999.0,48,0.00,,,0.12,meteohub,2013-04-01 16:02:00,
2013-04-01 09:07:00,59.7,54.9,17.73,North,-999,-999.0,-999.0,48,0.00,,,0.12,meteohub,2013-04-01 16:07:00,
2013-04-01 09:12:00,59.9,55.0,17.73,North,-999,-999.0,-999.0,48,0.00,,,0.12,meteohub,2013-04-01 16:12:00,
2013-04-01 09:17:00,59.9,54.7,17.73,North,-999,-999.0,-999.0,48,0.00,,,0.12,meteohub,2013-04-01 16:17:00,
2013-04-01 09:23:00,60.3,54.7,17.73,North,-999,-999.0,-999.0,48,0.00,,,0.12,meteohub,2013-04-01 16:23:00,
2013-04-01 09:28:00,60.4,54.9,17.73,North,-999,-999.0,-999.0,48,0.00,,,0.12,meteohub,2013-04-01 16:28:00,
2013-04-01 09:33:00,60.3,54.3,17.73,North,-999,-999.0,-999.0,48,0.00,,,0.12,meteohub,2013-04-01 16:33:00,
2013-04-01 09:38:00,60.1,52.9,17.73,North,-999,-999.0,-999.0,48,0.00,,,0.12,meteohub,2013-04-01 16:38:00,
2013-04-01 09:43:00,60.4,52.9,17.73,North,-999,-999.0,-999.0,48,0.00,,,0.12,meteohub,2013-04-01 16:43:00,
2013-04-01 09:48:00,60.4,52.9,17.73,North,-999,-999.0,-999.0,48,0.00,,,0.12,meteohub,2013-04-01 16:48:00,
2013-04-01 09:54:00,60.6,52.7,17.73,North,-999,-999.0,-999.0,48,0.00,,,0.12,meteohub,2013-04-01 16:54:00,
2013-04-01 09:59:00,60.6,52.0,17.73,North,-999,-999.0,-999.0,48,0.00,,,0.12,meteohub,2013-04-01 16:59:00,
2013-04-01 10:04:00,61.0,52.0,17.73,North,-999,-999.0,-999.0,47,0.00,,,0.12,meteohub,2013-04-01 17:04:00,
2013-04-01 10:10:00,61.2,52.0,17.73,North,-999,-999.0,-999.0,48,0.00,,,0.12,meteohub,2013-04-01 17:10:00,
2013-04-01 10:15:00,61.3,52.2,17.73,North,-999,-999.0,-999.0,48,0.00,,,0.12,meteohub,2013-04-01 17:15:00,
2013-04-01 10:20:00,61.3,51.8,17.73,North,-999,-999.0,-999.0,48,0.00,,,0.12,meteohub,2013-04-01 17:20:00,
2013-04-01 10:26:00,61.3,49.8,17.73,North,-999,-999.0,-999.0,48,0.00,,,0.12,meteohub,2013-04-01 17:26:00,
2013-04-01 10:31:00,61.5,50.5,17.73,North,-999,-999.0,-999.0,47,0.00,,,0.12,meteohub,2013-04-01 17:31:00,
2013-04-01 10:36:00,61.7,50.7,17.73,North,-999,-999.0,-999.0,47,0.00,,,0.12,meteohub,2013-04-01 17:36:00,
2013-04-01 10:41:00,61.5,49.6,17.73,North,-999,-999.0,-999.0,47,0.00,,,0.12,meteohub,2013-04-01 17:41:00,
2013-04-01 10:47:00,61.7,49.8,17.73,North,-999,-999.0,-999.0,48,0.00,,,0.12,meteohub,2013-04-01 17:47:00,
2013-04-01 10:52:00,62.1,50.2,17.73,North,-999,-999.0,-999.0,48,0.00,,,0.12,meteohub,2013-04-01 17:52:00,
2013-04-01 10:57:00,62.6,48.6,17.73,North,-999,-999.0,-999.0,48,0.00,,,0.12,meteohub,2013-04-01 17:57:00,
2013-04-01 11:02:00,62.6,46.8,17.73,North,-999,-999.0,-999.0,48,0.00,,,0.12,meteohub,2013-04-01 18:02:00,
2013-04-01 11:08:00,63.1,48.2,17.73,North,-999,-999.0,-999.0,48,0.00,,,0.12,meteohub,2013-04-01 18:08:00,
2013-04-01 11:13:00,63.3,47.8,17.73,North,-999,-999.0,-999.0,47,0.00,,,0.12,meteohub,2013-04-01 18:13:00,
2013-04-01 11:18:00,63.3,48.4,17.73,North,-999,-999.0,-999.0,47,0.00,,,0.12,meteohub,2013-04-01 18:18:00,
2013-04-01 11:23:00,63.3,47.3,17.73,North,-999,-999.0,-999.0,47,0.00,,,0.12,meteohub,2013-04-01 18:23:00,
2013-04-01 11:28:00,63.5,46.0,17.73,North,-999,-999.0,-999.0,47,0.00,,,0.12,meteohub,2013-04-01 18:28:00,
2013-04-01 11:33:00,63.9,45.9,17.73,North,-999,-999.0,-999.0,47,0.00,,,0.12,meteohub,2013-04-01 18:33:00,
2013-04-01 11:39:00,64.0,46.6,17.73,North,-999,-999.0,-999.0,47,0.00,,,0.12,meteohub,2013-04-01 18:39:00,
2013-04-01 11:44:00,64.2,45.7,17.73,North,-999,-999.0,-999.0,47,0.00,,,0.12,meteohub,2013-04-01 18:44:00,
2013-04-01 11:49:00,64.4,46.9,17.73,North,-999,-999.0,-999.0,47,0.00,,,0.12,meteohub,2013-04-01 18:49:00,
2013-04-01 11:54:00,64.6,45.5,17.73,North,-999,-999.0,-999.0,47,0.00,,,0.12,meteohub,2013-04-01 18:54:00,
2013-04-01 12:00:00,65.1,45.5,17.73,North,-999,-999.0,-999.0,47,0.00,,,0.12,meteohub,2013-04-01 19:00:00,
2013-04-01 12:05:00,65.5,44.2,17.73,North,-999,-999.0,-999.0,47,0.00,,,0.12,meteohub,2013-04-01 19:05:00,
2013-04-01 12:10:00,65.5,44.2,17.73,North,-999,-999.0,-999.0,47,0.00,,,0.12,meteohub,2013-04-01 19:10:00,
2013-04-01 12:16:00,65.1,43.9,17.73,North,-999,-999.0,-999.0,46,0.00,,,0.12,meteohub,2013-04-01 19:16:00,
2013-04-01 12:22:00,65.1,43.9,17.73,North,-999,-999.0,-999.0,46,0.00,,,0.12,meteohub,2013-04-01 19:22:00,
2013-04-01 12:27:00,64.9,43.2,17.73,North,-999,-999.0,-999.0,46,0.00,,,0.12,meteohub,2013-04-01 19:27:00,
2013-04-01 12:32:00,65.5,43.5,17.73,North,-999,-999.0,-999.0,46,0.00,,,0.12,meteohub,2013-04-01 19:32:00,
2013-04-01 12:37:00,66.2,43.7,17.73,North,-999,-999.0,-999.0,46,0.00,,,0.12,meteohub,2013-04-01 19:37:00,
2013-04-01 12:42:00,66.9,43.7,17.73,North,-999,-999.0,-999.0,46,0.00,,,0.12,meteohub,2013-04-01 19:42:00,
2013-04-01 12:47:00,67.1,43.2,17.73,North,-999,-999.0,-999.0,46,0.00,,,0.12,meteohub,2013-04-01 19:47:00,
2013-04-01 12:53:00,67.5,43.0,17.73,North,-999,-999.0,-999.0,46,0.00,,,0.12,meteohub,2013-04-01 19:53:00,
2013-04-01 12:58:00,68.2,44.2,17.73,North,-999,-999.0,-999.0,46,0.00,,,0.12,meteohub,2013-04-01 19:58:00,
2013-04-01 13:03:00,68.5,43.3,17.73,North,-999,-999.0,-999.0,46,0.00,,,0.12,meteohub,2013-04-01 20:03:00,
2013-04-01 13:09:00,69.3,44.6,17.73,North,-999,-999.0,-999.0,45,0.00,,,0.12,meteohub,2013-04-01 20:09:00,
2013-04-01 13:14:00,70.2,46.0,17.73,North,-999,-999.0,-999.0,45,0.00,,,0.12,meteohub,2013-04-01 20:14:00,
2013-04-01 13:19:00,70.3,43.5,17.73,North,-999,-999.0,-999.0,45,0.00,,,0.12,meteohub,2013-04-01 20:19:00,
2013-04-01 13:24:00,70.2,41.9,17.73,North,-999,-999.0,-999.0,45,0.00,,,0.12,meteohub,2013-04-01 20:24:00,
2013-04-01 13:30:00,70.0,41.7,17.73,North,-999,-999.0,-999.0,45,0.00,,,0.12,meteohub,2013-04-01 20:30:00,
2013-04-01 13:35:00,70.0,43.9,17.73,North,-999,-999.0,-999.0,45,0.00,,,0.12,meteohub,2013-04-01 20:35:00,
2013-04-01 13:40:00,69.8,45.0,17.73,North,-999,-999.0,-999.0,45,0.00,,,0.12,meteohub,2013-04-01 20:40:00,
2013-04-01 13:45:00,69.4,44.1,17.73,North,-999,-999.0,-999.0,45,0.00,,,0.12,meteohub,2013-04-01 20:45:00,
2013-04-01 13:50:00,69.4,42.8,17.73,North,-999,-999.0,-999.0,45,0.00,,,0.12,meteohub,2013-04-01 20:50:00,
2013-04-01 13:56:00,69.1,41.7,17.73,North,-999,-999.0,-999.0,45,0.00,,,0.12,meteohub,2013-04-01 20:56:00,
2013-04-01 14:01:00,68.7,42.8,17.73,North,-999,-999.0,-999.0,45,0.00,,,0.12,meteohub,2013-04-01 21:01:00,
2013-04-01 14:07:00,69.4,44.1,17.73,North,-999,-999.0,-999.0,45,0.00,,,0.12,meteohub,2013-04-01 21:07:00,
2013-04-01 14:12:00,69.6,43.5,17.73,North,-999,-999.0,-999.0,45,0.00,,,0.12,meteohub,2013-04-01 21:12:00,
2013-04-01 14:17:00,69.8,44.4,17.73,North,-999,-999.0,-999.0,46,0.00,,,0.12,meteohub,2013-04-01 21:17:00,
2013-04-01 14:22:00,69.3,45.1,17.73,North,-999,-999.0,-999.0,46,0.00,,,0.12,meteohub,2013-04-01 21:22:00,
2013-04-01 14:27:00,69.3,45.9,17.73,North,-999,-999.0,-999.0,45,0.00,,,0.12,meteohub,2013-04-01 21:27:00,
2013-04-01 14:32:00,69.3,45.1,17.73,North,-999,-999.0,-999.0,45,0.00,,,0.12,meteohub,2013-04-01 21:32:00,
2013-04-01 14:38:00,69.3,45.9,17.73,North,-999,-999.0,-999.0,45,0.00,,,0.12,meteohub,2013-04-01 21:38:00,
2013-04-01 14:43:00,69.1,45.0,17.73,North,-999,-999.0,-999.0,45,0.00,,,0.12,meteohub,2013-04-01 21:43:00,
2013-04-01 14:48:00,68.9,44.8,17.73,North,-999,-999.0,-999.0,45,0.00,,,0.12,meteohub,2013-04-01 21:48:00,
2013-04-01 14:53:00,68.7,44.1,17.73,North,-999,-999.0,-999.0,45,0.00,,,0.12,meteohub,2013-04-01 21:53:00,
2013-04-01 14:59:00,68.2,43.5,17.73,North,-999,-999.0,-999.0,45,0.00,,,0.12,meteohub,2013-04-01 21:59:00,
2013-04-01 15:04:00,67.8,44.4,17.73,North,-999,-999.0,-999.0,45,0.00,,,0.12,meteohub,2013-04-01 22:04:00,
2013-04-01 15:09:00,67.8,44.4,17.73,North,-999,-999.0,-999.0,45,0.00,,,0.12,meteohub,2013-04-01 22:09:00,
2013-04-01 15:14:00,67.8,44.4,17.73,North,-999,-999.0,-999.0,45,0.00,,,0.12,meteohub,2013-04-01 22:14:00,
2013-04-01 15:20:00,68.0,44.6,17.73,North,-999,-999.0,-999.0,45,0.00,,,0.12,meteohub,2013-04-01 22:20:00,
2013-04-01 15:25:00,68.7,45.3,17.73,North,-999,-999.0,-999.0,45,0.00,,,0.12,meteohub,2013-04-01 22:25:00,
2013-04-01 15:30:00,69.4,44.1,17.73,North,-999,-999.0,-999.0,45,0.00,,,0.12,meteohub,2013-04-01 22:30:00,
2013-04-01 15:35:00,70.0,43.2,17.73,North,-999,-999.0,-999.0,46,0.00,,,0.12,meteohub,2013-04-01 22:35:00,
2013-04-01 15:40:00,70.2,44.1,17.73,North,-999,-999.0,-999.0,46,0.00,,,0.12,meteohub,2013-04-01 22:40:00,
2013-04-01 15:45:00,70.2,42.6,17.73,North,-999,-999.0,-999.0,45,0.00,,,0.12,meteohub,2013-04-01 22:45:00,
2013-04-01 15:50:00,70.2,43.3,17.73,North,-999,-999.0,-999.0,45,0.00,,,0.12,meteohub,2013-04-01 22:50:00,
2013-04-01 15:56:00,70.0,42.4,17.73,North,-999,-999.0,-999.0,46,0.00,,,0.12,meteohub,2013-04-01 22:56:00,
2013-04-01 16:01:00,69.8,42.4,17.73,North,-999,-999.0,-999.0,46,0.00,,,0.12,meteohub,2013-04-01 23:01:00,
2013-04-01 16:07:00,69.6,42.3,17.73,North,-999,-999.0,-999.0,46,0.00,,,0.12,meteohub,2013-04-01 23:07:00,
2013-04-01 16:12:00,68.9,42.3,17.73,North,-999,-999.0,-999.0,46,0.00,,,0.12,meteohub,2013-04-01 23:12:00,
2013-04-01 16:17:00,68.5,43.9,17.73,North,-999,-999.0,-999.0,46,0.00,,,0.12,meteohub,2013-04-01 23:17:00,
2013-04-01 16:22:00,68.4,44.4,17.73,North,-999,-999.0,-999.0,46,0.00,,,0.12,meteohub,2013-04-01 23:22:00,
2013-04-01 16:27:00,68.0,44.1,17.73,North,-999,-999.0,-999.0,46,0.00,,,0.12,meteohub,2013-04-01 23:27:00,
2013-04-01 16:32:00,67.6,43.7,17.73,North,-999,-999.0,-999.0,46,0.00,,,0.12,meteohub,2013-04-01 23:32:00,
2013-04-01 16:38:00,67.5,44.2,17.73,North,-999,-999.0,-999.0,46,0.00,,,0.12,meteohub,2013-04-01 23:38:00,
2013-04-01 16:43:00,66.9,43.7,17.73,North,-999,-999.0,-999.0,46,0.00,,,0.12,meteohub,2013-04-01 23:43:00,
2013-04-01 16:48:00,66.6,43.3,17.73,North,-999,-999.0,-999.0,46,0.00,,,0.12,meteohub,2013-04-01 23:48:00,
2013-04-01 16:54:00,66.4,43.9,17.73,North,-999,-999.0,-999.0,46,0.00,,,0.12,meteohub,2013-04-01 23:54:00,
2013-04-01 16:59:00,66.4,43.9,17.73,North,-999,-999.0,-999.0,46,0.00,,,0.12,meteohub,2013-04-01 23:59:00,
2013-04-01 17:04:00,66.0,43.5,17.73,North,-999,-999.0,-999.0,46,0.00,,,0.12,meteohub,2013-04-02 00:04:00,
2013-04-01 17:09:00,66.0,44.1,17.73,North,-999,-999.0,-999.0,46,0.00,,,0.00,meteohub,2013-04-02 00:09:00,
2013-04-01 17:15:00,66.0,44.1,17.73,North,-999,-999.0,-999.0,46,0.00,,,0.00,meteohub,2013-04-02 00:15:00,
2013-04-01 17:20:00,66.0,44.1,17.73,North,-999,-999.0,-999.0,46,0.00,,,0.00,meteohub,2013-04-02 00:20:00,
2013-04-01 17:25:00,65.8,43.9,17.73,North,-999,-999.0,-999.0,46,0.00,,,0.00,meteohub,2013-04-02 00:25:00,
2013-04-01 17:30:00,65.8,43.9,17.73,North,-999,-999.0,-999.0,46,0.00,,,0.00,meteohub,2013-04-02 00:30:00,
2013-04-01 17:35:00,65.7,43.7,17.73,North,-999,-999.0,-999.0,46,0.00,,,0.00,meteohub,2013-04-02 00:35:00,
2013-04-01 17:40:00,65.5,43.5,17.73,North,-999,-999.0,-999.0,46,0.00,,,0.00,meteohub,2013-04-02 00:40:00,
2013-04-01 17:46:00,65.3,44.1,17.73,North,-999,-999.0,-999.0,46,0.00,,,0.00,meteohub,2013-04-02 00:46:00,
2013-04-01 17:51:00,65.3,44.1,17.73,North,-999,-999.0,-999.0,46,0.00,,,0.00,meteohub,2013-04-02 00:51:00,
2013-04-01 17:57:00,65.1,43.9,17.73,North,-999,-999.0,-999.0,46,0.00,,,0.00,meteohub,2013-04-02 00:57:00,
2013-04-01 18:02:00,64.4,43.2,17.73,North,-999,-999.0,-999.0,45,0.00,,,0.00,meteohub,2013-04-02 01:02:00,
2013-04-01 18:07:00,64.4,43.7,17.73,North,-999,-999.0,-999.0,45,0.00,,,0.00,meteohub,2013-04-02 01:07:00,
2013-04-01 18:12:00,64.8,44.1,17.73,North,-999,-999.0,-999.0,45,0.00,,,0.00,meteohub,2013-04-02 01:12:00,
2013-04-01 18:17:00,64.9,44.2,17.73,North,-999,-999.0,-999.0,45,0.00,,,0.00,meteohub,2013-04-02 01:17:00,
2013-04-01 18:22:00,64.8,43.5,17.73,North,-999,-999.0,-999.0,45,0.00,,,0.00,meteohub,2013-04-02 01:22:00,
2013-04-01 18:27:00,64.6,43.3,17.73,North,-999,-999.0,-999.0,45,0.00,,,0.00,meteohub,2013-04-02 01:27:00,
2013-04-01 18:32:00,64.6,43.3,17.73,North,-999,-999.0,-999.0,45,0.00,,,0.00,meteohub,2013-04-02 01:32:00,
2013-04-01 18:37:00,64.4,43.2,17.73,North,-999,-999.0,-999.0,45,0.00,,,0.00,meteohub,2013-04-02 01:37:00,
2013-04-01 18:42:00,64.4,43.7,17.73,North,-999,-999.0,-999.0,45,0.00,,,0.00,meteohub,2013-04-02 01:42:00,
2013-04-01 18:47:00,64.4,43.2,17.73,North,-999,-999.0,-999.0,45,0.00,,,0.00,meteohub,2013-04-02 01:47:00,
2013-04-01 18:52:00,64.2,43.5,17.73,North,-999,-999.0,-999.0,45,0.00,,,0.00,meteohub,2013-04-02 01:52:00,
2013-04-01 18:57:00,63.9,43.2,17.73,North,-999,-999.0,-999.0,45,0.00,,,0.00,meteohub,2013-04-02 01:57:00,
2013-04-01 19:02:00,63.3,42.8,17.73,North,-999,-999.0,-999.0,45,0.00,,,0.00,meteohub,2013-04-02 02:02:00,
2013-04-01 19:07:00,63.1,43.2,17.73,North,-999,-999.0,-999.0,45,0.00,,,0.00,meteohub,2013-04-02 02:07:00,
2013-04-01 19:13:00,62.8,42.8,17.73,North,-999,-999.0,-999.0,45,0.00,,,0.00,meteohub,2013-04-02 02:13:00,
2013-04-01 19:18:00,62.4,42.4,17.73,North,-999,-999.0,-999.0,45,0.00,,,0.00,meteohub,2013-04-02 02:18:00,
2013-04-01 19:23:00,62.4,43.0,17.73,North,-999,-999.0,-999.0,45,0.00,,,0.00,meteohub,2013-04-02 02:23:00,
2013-04-01 19:28:00,62.2,42.8,17.73,North,-999,-999.0,-999.0,45,0.00,,,0.00,meteohub,2013-04-02 02:28:00,
2013-04-01 19:33:00,62.2,43.3,17.73,North,-999,-999.0,-999.0,44,0.00,,,0.00,meteohub,2013-04-02 02:33:00,
2013-04-01 19:38:00,62.1,43.2,17.73,North,-999,-999.0,-999.0,44,0.00,,,0.00,meteohub,2013-04-02 02:38:00,
2013-04-01 19:44:00,61.7,42.8,17.73,North,-999,-999.0,-999.0,44,0.00,,,0.00,meteohub,2013-04-02 02:44:00,
2013-04-01 19:49:00,61.5,42.6,17.73,North,-999,-999.0,-999.0,44,0.00,,,0.00,meteohub,2013-04-02 02:49:00,
2013-04-01 19:54:00,61.3,42.6,17.73,North,-999,-999.0,-999.0,44,0.00,,,0.00,meteohub,2013-04-02 02:54:00,
2013-04-01 19:59:00,61.0,42.3,17.73,North,-999,-999.0,-999.0,44,0.00,,,0.00,meteohub,2013-04-02 02:59:00,
2013-04-01 20:04:00,61.0,42.8,17.73,North,-999,-999.0,-999.0,44,0.00,,,0.00,meteohub,2013-04-02 03:04:00,
2013-04-01 20:10:00,60.6,42.4,17.73,North,-999,-999.0,-999.0,44,0.00,,,0.00,meteohub,2013-04-02 03:10:00,
2013-04-01 20:15:00,60.4,42.3,17.73,North,-999,-999.0,-999.0,44,0.00,,,0.00,meteohub,2013-04-02 03:15:00,
2013-04-01 20:20:00,60.3,42.6,17.73,North,-999,-999.0,-999.0,44,0.00,,,0.00,meteohub,2013-04-02 03:20:00,
2013-04-01 20:26:00,60.1,42.4,17.73,North,-999,-999.0,-999.0,44,0.00,,,0.00,meteohub,2013-04-02 03:26:00,
2013-04-01 20:31:00,60.1,43.0,17.73,North,-999,-999.0,-999.0,44,0.00,,,0.00,meteohub,2013-04-02 03:31:00,
2013-04-01 20:36:00,59.9,42.8,17.73,North,-999,-999.0,-999.0,44,0.00,,,0.00,meteohub,2013-04-02 03:36:00,
2013-04-01 20:41:00,59.7,42.6,17.73,North,-999,-999.0,-999.0,44,0.00,,,0.00,meteohub,2013-04-02 03:41:00,
2013-04-01 20:47:00,59.5,42.4,17.73,North,-999,-999.0,-999.0,44,0.00,,,0.00,meteohub,2013-04-02 03:47:00,
2013-04-01 20:52:00,59.5,42.4,17.73,North,-999,-999.0,-999.0,44,0.00,,,0.00,meteohub,2013-04-02 03:52:00,
2013-04-01 20:57:00,59.7,43.0,17.73,North,-999,-999.0,-999.0,44,0.00,,,0.00,meteohub,2013-04-02 03:57:00,
2013-04-01 21:00:00,59.7,43.0,17.73,North,-999,-999.0,-999.0,44,0.00,,,0.00,meteohub,2013-04-02 04:00:00,
2013-04-01 21:04:00,59.5,43.3,17.73,North,-999,-999.0,-999.0,44,0.00,,,0.00,meteohub,2013-04-02 04:04:00,
2013-04-01 21:09:00,59.5,43.3,17.73,North,-999,-999.0,-999.0,44,0.00,,,0.00,meteohub,2013-04-02 04:09:00,
2013-04-01 21:10:00,59.5,43.3,17.73,North,-999,-999.0,-999.0,44,0.00,,,0.00,meteohub,2013-04-02 04:10:00,
2013-04-01 21:16:00,59.5,43.3,17.73,North,-999,-999.0,-999.0,44,0.00,,,0.00,meteohub,2013-04-02 04:16:00,
2013-04-01 21:21:00,59.4,43.7,17.73,North,-999,-999.0,-999.0,44,0.00,,,0.00,meteohub,2013-04-02 04:21:00,
2013-04-01 21:27:00,59.4,43.7,17.73,North,-999,-999.0,-999.0,44,0.00,,,0.00,meteohub,2013-04-02 04:27:00,
2013-04-01 21:32:00,59.2,43.5,17.73,North,-999,-999.0,-999.0,44,0.00,,,0.00,meteohub,2013-04-02 04:32:00,
2013-04-01 21:37:00,59.2,43.5,17.73,North,-999,-999.0,-999.0,44,0.00,,,0.00,meteohub,2013-04-02 04:37:00,
2013-04-01 21:42:00,59.2,43.9,17.73,North,-999,-999.0,-999.0,44,0.00,,,0.00,meteohub,2013-04-02 04:42:00,
2013-04-01 21:47:00,59.2,43.9,17.73,North,-999,-999.0,-999.0,44,0.00,,,0.00,meteohub,2013-04-02 04:47:00,
2013-04-01 21:53:00,58.8,44.1,17.73,North,-999,-999.0,-999.0,44,0.00,,,0.00,meteohub,2013-04-02 04:53:00,
2013-04-01 21:58:00,58.6,44.4,17.73,North,-999,-999.0,-999.0,44,0.00,,,0.00,meteohub,2013-04-02 04:58:00,
2013-04-01 22:03:00,58.6,44.4,17.73,North,-999,-999.0,-999.0,44,0.00,,,0.00,meteohub,2013-04-02 05:03:00,
2013-04-01 22:09:00,58.5,44.2,17.73,North,-999,-999.0,-999.0,44,0.00,,,0.00,meteohub,2013-04-02 05:09:00,
2013-04-01 22:14:00,58.5,44.2,17.73,North,-999,-999.0,-999.0,44,0.00,,,0.00,meteohub,2013-04-02 05:14:00,
2013-04-01 22:19:00,58.3,44.4,17.73,North,-999,-999.0,-999.0,44,0.00,,,0.00,meteohub,2013-04-02 05:19:00,
2013-04-01 22:25:00,58.1,44.2,17.73,North,-999,-999.0,-999.0,44,0.00,,,0.00,meteohub,2013-04-02 05:25:00,
2013-04-01 22:30:00,57.9,44.6,17.73,North,-999,-999.0,-999.0,44,0.00,,,0.00,meteohub,2013-04-02 05:30:00,
2013-04-01 22:35:00,57.9,44.6,17.73,North,-999,-999.0,-999.0,44,0.00,,,0.00,meteohub,2013-04-02 05:35:00,
2013-04-01 22:40:00,57.7,44.4,17.73,North,-999,-999.0,-999.0,44,0.00,,,0.00,meteohub,2013-04-02 05:40:00,
2013-04-01 22:45:00,57.6,44.6,17.73,North,-999,-999.0,-999.0,44,0.00,,,0.00,meteohub,2013-04-02 05:45:00,
2013-04-01 22:51:00,57.4,45.0,17.73,North,-999,-999.0,-999.0,44,0.00,,,0.00,meteohub,2013-04-02 05:51:00,
2013-04-01 22:56:00,57.0,45.0,17.73,North,-999,-999.0,-999.0,44,0.00,,,0.00,meteohub,2013-04-02 05:56:00,
2013-04-01 23:01:00,56.8,44.8,17.73,North,-999,-999.0,-999.0,44,0.00,,,0.00,meteohub,2013-04-02 06:01:00,
2013-04-01 23:07:00,56.7,45.0,17.73,North,-999,-999.0,-999.0,44,0.00,,,0.00,meteohub,2013-04-02 06:07:00,
2013-04-01 23:12:00,56.5,44.8,17.73,North,-999,-999.0,-999.0,44,0.00,,,0.00,meteohub,2013-04-02 06:12:00,
2013-04-01 23:17:00,56.5,45.3,17.73,North,-999,-999.0,-999.0,44,0.00,,,0.00,meteohub,2013-04-02 06:17:00,
2013-04-01 23:22:00,56.3,45.1,17.73,North,-999,-999.0,-999.0,44,0.00,,,0.00,meteohub,2013-04-02 06:22:00,
2013-04-01 23:27:00,55.9,45.1,17.73,North,-999,-999.0,-999.0,44,0.00,,,0.00,meteohub,2013-04-02 06:27:00,
2013-04-01 23:32:00,55.9,45.1,17.73,North,-999,-999.0,-999.0,44,0.00,,,0.00,meteohub,2013-04-02 06:32:00,
2013-04-01 23:37:00,55.9,45.1,17.73,North,-999,-999.0,-999.0,44,0.00,,,0.00,meteohub,2013-04-02 06:37:00,
2013-04-01 23:43:00,55.9,45.5,17.73,North,-999,-999.0,-999.0,44,0.00,,,0.00,meteohub,2013-04-02 06:43:00,
2013-04-01 23:48:00,55.9,45.5,17.73,North,-999,-999.0,-999.0,44,0.00,,,0.00,meteohub,2013-04-02 06:48:00,
2013-04-01 23:53:00,56.1,45.7,17.73,North,-999,-999.0,-999.0,44,0.00,,,0.00,meteohub,2013-04-02 06:53:00,
2013-04-01 23:58:00,56.1,45.7,17.73,North,-999,-999.0,-999.0,43,0.00,,,0.00,meteohub,2013-04-02 06:58:00,